Content
SEND FEEDBACK

Daily
Averages
Monthly
Summary
United States of America

UMATAC, GUAM


Home > North America > United States > Guam
Elevation: 58 meters     Latitude: 13 17N     Longitude: 144 40E

WEATHER
 
SELECT A DAY
Number of Records: 352,517;   Date Range: 1/1/95 - 10/30/14
 
SHARE

PRINT THIS DATA

[ ← Previous Day ]
WEATHER ALMANAC - 6 MARCH, 2014
[ Next Day → ]
[ °F ]   °C
Weather ElementAverageHighLow
Temperature25.4 °C27.2 °C (1:58 pm)23.5 °C (2:58 am)
Dewpoint21.6 °C23 °C (1:43 am)20.7 °C (9:58 pm)
Humidity79.7 %94 % (1:43 am)70 % (1:03 pm)
Barometer1008.8 hPa1010.8 hPa (9:13 am)1006.8 hPa (3:55 pm)
Wind Speed14.3 km/h31.5 km/h (11:58 am)
Wind Gust38.9 km/h (1:03 pm)
Weather ElementAverage
Visibility16.1 km
Wind DirectionSSE (171.8 °)

Weather ElementTotal
Precipitation---
Cooling Degree Days7.1 (Base 18.3)
Growing Degree Days15.4 (Base 10)
Averaged from 44 records on 6 March, 2014
WEATHER CONDITIONS BREAKOUT
WIND DIRECTION BREAKOUT
WEATHER BY HOUR - 6 MARCH, 2014
[ °F ]   °C
Local TimeTemperatureDewpointHumidityBarometerVisibilityWind DirectionWind SpeedGust SpeedPrecipitationEventsConditions
1:28 AM25 °C22 °C83 %1008.8 hPa16.1 kmNNW (330°)16.7 km/hMostly Cloudy
1:43 AM24 °C23 °C94 %1008.8 hPa16.1 kmNorth (360°)1.9 km/h29.6 km/hMostly Cloudy
1:48 AM24 °C22 °C89 %1008.8 hPa16.1 kmNorth (350°)3.7 km/hMostly Cloudy
1:58 AM23.6 °C22.5 °C94 %1007.5 hPa16.1 kmNNW (340°)9.3 km/hScattered Clouds
2:58 AM23.5 °C21.3 °C87 %1007.5 hPa16.1 kmVariable7.4 km/hScattered Clouds
3:58 AM23.6 °C21.4 °C87 %1007.5 hPa16.1 kmNorth (10°)7.4 km/hMostly Cloudy
4:43 AM24 °C23 °C94 %1008.1 hPa16.1 kmVariable5.6 km/hMostly Cloudy
4:48 AM24 °C22 °C89 %1008.1 hPa16.1 kmNorth (350°)5.6 km/hScattered Clouds
4:58 AM24 °C22 °C89 %1007.5 hPa16.1 kmNorth (360°)5.6 km/hMostly Cloudy
5:03 AM24 °C22 °C89 %1008.5 hPa16.1 kmNorth (360°)3.7 km/hMostly Cloudy
5:58 AM24.4 °C21.5 °C84 %1007.5 hPa16.1 kmVariable5.6 km/hScattered Clouds
6:07 AM24 °C21 °C83 %1008.8 hPa16.1 kmNorth (360°)13 km/hPartly Cloudy
6:58 AM24.3 °C21.9 °C86 %1008.5 hPa16.1 kmVariable7.4 km/hClear
7:43 AM25 °C22 °C83 %1010.2 hPa16.1 kmNorth (360°)5.6 km/hMostly Cloudy
7:53 AM25 °C22 °C83 %1010.2 hPa16.1 kmNorth (350°)7.4 km/hScattered Clouds
7:58 AM24.8 °C21.4 °C81 %1009.5 hPa16.1 kmVariable3.7 km/hScattered Clouds
8:58 AM26.2 °C21.6 °C76 %1009.5 hPa16.1 kmNorth (360°)3.7 km/hScattered Clouds
9:13 AM26 °C22 °C78 %1010.8 hPa16.1 kmVariable1.9 km/hMostly Cloudy
9:23 AM27 °C22 °C74 %1010.8 hPa16.1 kmVariable1.9 km/hMostly Cloudy
9:28 AM27 °C22 °C74 %1010.8 hPa16.1 kmCalmMostly Cloudy
9:43 AM27 °C22 °C74 %1010.8 hPa16.1 kmNorth (360°)1.9 km/hScattered Clouds
9:58 AM26.9 °C21.2 °C71 %1009.8 hPa16.1 kmNorth (360°)3.7 km/hPartly Cloudy
10:58 AM26.9 °C21.5 °C72 %1009.5 hPa16.1 kmNorth (360°)27.8 km/h37 km/hMostly Cloudy
11:58 AM27 °C22 °C74 %1008.5 hPa16.1 kmNorth (360°)31.5 km/hScattered Clouds
12:58 PM27 °C21.9 °C73 %1008.1 hPa16.1 kmNorth (360°)31.5 km/h37 km/hMostly Cloudy
1:03 PM27 °C21 °C70 %1009.1 hPa16.1 kmNorth (360°)29.6 km/h38.9 km/hScattered Clouds
1:58 PM27.2 °C21.7 °C72 %1007.5 hPa16.1 kmNorth (10°)25.9 km/h37 km/hPartly Cloudy
2:58 PM27.1 °C21.4 °C71 %1007.1 hPa16.1 kmNorth (360°)25.9 km/h38.9 km/hClear
3:55 PM26.6 °C21.5 °C73 %1006.8 hPa16.1 kmNorth (10°)25.9 km/h31.5 km/hScattered Clouds
4:24 PM27 °C21 °C70 %1008.8 hPa16.1 kmNorth (360°)22.2 km/hMostly Cloudy
4:44 PM26 °C21 °C74 %1008.5 hPa16.1 kmNorth (360°)27.8 km/hScattered Clouds
4:49 PM26 °C21 °C74 %1008.5 hPa16.1 kmNorth (10°)24.1 km/h31.5 km/hScattered Clouds
4:58 PM26.4 °C21.2 °C73 %1007.5 hPa16.1 kmNorth (10°)20.4 km/h31.5 km/hScattered Clouds
5:58 PM25.8 °C21.2 °C76 %1007.8 hPa16.1 kmNorth (10°)16.7 km/hScattered Clouds
6:53 PM25 °C21 °C78 %1009.5 hPa16.1 kmNNE (30°)14.8 km/h27.8 km/hMostly Cloudy
6:58 PM25.4 °C21.4 °C78 %1008.5 hPa16.1 kmNNE (30°)20.4 km/hMostly Cloudy
7:03 PM25 °C21 °C78 %1009.5 hPa16.1 kmNNE (30°)25.9 km/h31.5 km/hScattered Clouds
7:33 PM25 °C22 °C83 %1009.8 hPa16.1 kmNE (50°)22.2 km/hMostly Cloudy
7:38 PM25 °C21 °C78 %1010.2 hPa16.1 kmNE (40°)20.4 km/hScattered Clouds
7:58 PM25.1 °C21.3 °C79 %1009.5 hPa16.1 kmNE (50°)20.4 km/hScattered Clouds
8:58 PM25 °C21 °C78 %1009.8 hPa16.1 kmNE (40°)18.5 km/hScattered Clouds
9:58 PM24.8 °C20.7 °C78 %1010.2 hPa16.1 kmNE (40°)16.7 km/hClear
10:58 PM24.8 °C21 °C79 %1010.2 hPa16.1 kmNE (40°)24.1 km/hPartly Cloudy
11:58 PM24.7 °C21.5 °C82 %1010.2 hPa16.1 kmNNE (30°)14.8 km/h27.8 km/hScattered Clouds
Hourly data recorded from PGUA, located 0 kilometers away from Umatac, Guam







STORIES FROM OUR PARTNERS